Flag for Philippines Weather past 2 weeks in Makati, Philippines

Now
77 °F

Partly cloudy.


Feels Like: 78 °F
Forecast: 78 / 85 °F
Wind: 1 mph from North

Location: National Airport

Current Time: Dec 26, 2014 at 4:43:44 AM

Latest Report: Dec 26, 2014 at 4:00 AM


Visibility: N/A

Pressure: 29.89 "Hg

Humidity: 94%

Dew point: 75 °F

Location of MakatiLocation

Historic Weather in Makati — Graph

°F

Makati temperature yesterday

Maximum temperature yesterday: 86 °F (at 10:00 AM)
Minimum temperature yesterday: 75 °F (at 1:00 AM)
Average temperature yesterday: 80 °F

Past Weeks' High & Low Weather Summary

 TemperatureHumidityPressure
High90 °F (Dec 11, 11:00 AM)100% (Dec 11, 4:00 AM)30.04 "Hg (Dec 11, 4:00 AM)
Low73 °F (Dec 22, 2:00 AM)37% (Dec 14, 5:00 PM)29.65 "Hg (Dec 17, 10:00 PM)
Average81 °F81%29.91 "Hg
* Reported Dec 11 3:00 AM — Dec 26 3:00 AM, Makati, Weather by CustomWeather, © 2014

Note: Actual official high and low records may vary slightly from our data, if they occured in-between our weather recording intervals... More about our weather records

Advertising

Makati weather history for previous 24 hours

 ConditionsComfort  
Time TempWeatherWind HumidityBarometerVisibility
3:00 AM
Dec 26
77 °FPartly cloudy.No wind89%29.86 "HgN/A
2:00 AM79 °FPartly cloudy.1 mph84%29.86 "HgN/A
1:00 AM79 °FPartly cloudy.No wind89%29.89 "HgN/A
12:00 AM79 °FPartly cloudy.1 mph79%29.89 "HgN/A
10:00 PM
Dec 25
79 °FPartly cloudy.2 mph79%29.92 "HgN/A
9:00 PM81 °FPartly cloudy.3 mph74%29.92 "HgN/A
8:00 PM81 °FPartly cloudy.7 mph70%29.89 "HgN/A
7:00 PM81 °FPartly cloudy.6 mph70%29.89 "HgN/A
6:00 PM81 °FPartly cloudy.7 mph70%29.86 "HgN/A
5:00 PM82 °FSprinkles. Broken clouds.10 mph66%29.86 "HgN/A
4:00 PM84 °FBroken clouds.9 mph62%29.83 "HgN/A
3:00 PM84 °FBroken clouds.10 mph62%29.83 "HgN/A
2:00 PM84 °FPartly sunny.12 mph62%29.83 "HgN/A
1:00 PM84 °FScattered clouds.8 mph62%29.86 "HgN/A
12:00 PM86 °FScattered clouds.9 mph66%29.89 "HgN/A
11:00 AM86 °FScattered clouds.7 mph66%29.92 "HgN/A
10:00 AM86 °FScattered clouds.3 mph62%29.95 "HgN/A
9:00 AM82 °FScattered clouds.5 mph79%29.95 "HgN/A
8:00 AM81 °FScattered clouds.2 mph84%29.95 "HgN/A
7:00 AM75 °FScattered clouds.No wind100%29.92 "HgN/A
6:00 AM75 °FPassing clouds.2 mph100%29.89 "Hg6 mi
5:00 AM75 °FPassing clouds.3 mph100%29.89 "Hg6 mi
4:00 AM75 °FPassing clouds.2 mph100%29.89 "Hg6 mi
Weather by CustomWeather, © 2014

See weather overviewHow to use our weather pages